Location: East Irvine
(33.6759°N, 117.7598°W)
Time: 01:48:07
(UTC+00:00)

CORIOLIS - Pass Details

Date: 15 November 2025
Orbit: 815 x 836 km, 98.7° (Epoch: 07 December)

Event Time Altitude Azimuth Distance (km) Brightness Sun altitude
Rises 01:11:41 0° 161° (SSE) 3,353 7.3 -5.4°
Reaches altitude 10° 01:14:02 10° 160° (SSE) 2,420 6.6 -5.8°
Maximum altitude 01:19:23 77° 75° (ENE) 849 4.1 -6.9°
Drops below altitude 10° 01:24:44 10° 351° (N) 2,421 6.5 -8.0°
Sets 01:27:04 0° 350° (N) 3,354 7.3 -8.4°
